Location: Castle
(40.7167°S, 175.9500°E)
Time: 18:49:15
(UTC+00:00)

USA 267 - Pass Details

Date: 04 August 2024
Orbit: 1099 x 1109 km, 123.0° (Epoch: 17 September)

Event Time Altitude Azimuth Distance (km) Brightness Sun altitude
Rises 17:45:22 0° 48° (NE) 3,913 7.1 -17.8°
Reaches altitude 10° 17:47:50 10° 48° (NE) 2,960 6.3 -17.4°
Maximum altitude 17:54:24 87° 317° (NW) 1,114 3.2 -16.2°
Enters shadow 18:00:10 14° 228° (SW) 2,657 4.8 -15.1°
